Wind_Speed
23 22 20 18 15 12 10 11 10 7 6 4 5 5 4 4 4 4 4 3 2 2 2 3 3 3 3 4 5 6 6 7 7 7 7 7 7 7 7 8 7 7 8 8 8 8 8 9 9
23 23 22 20 18 13 12 14 11 9 6 5 5 4 3 3 2 2 1 1 1 2 1 2 1 1 2 2 3 4 4 5 5 5 5 5 5 6 6 7 7 7 7 7 7 8 8 9 10
22 23 23 23 22 18 16 17 13 9 6 4 4 3 2 2 2 2 2 3 3 3 3 3 3 2 1 1 2 3 3 3 4 4 5 5 5 6 6 7 7 7 7 7 7 8 8 9 10
21 22 23 23 23 21 21 19 15 10 7 4 3 3 1 1 2 3 4 4 4 5 5 4 4 3 2 1 1 2 2 3 4 4 5 5 6 6 7 7 7 7 7 7 8 8 9 10 10
20 21 22 22 23 23 23 21 16 12 8 5 4 3 2 2 4 4 5 5 6 7 7 6 5 4 3 2 1 1 2 2 3 4 5 6 6 7 8 8 8 8 8 9 9 10 10 11 11
17 18 19 20 23 25 24 21 17 12 9 7 5 4 3 3 4 5 6 7 7 8 8 7 6 6 4 3 3 2 2 2 3 4 5 6 7 8 8 9 9 9 10 10 10 11 11 12 12
14 16 16 20 24 26 25 21 17 13 11 9 6 5 4 4 5 6 6 6 7 8 9 9 8 7 6 5 4 4 3 4 4 5 5 6 7 8 9 10 10 10 11 11 11 11 12 12 13
12 13 16 20 25 26 25 21 17 15 13 11 8 6 6 6 6 6 6 6 7 9 9 9 8 8 7 6 6 5 5 5 5 6 7 7 8 9 10 11 11 11 11 12 12 12 13 13 14
13 13 15 21 25 26 24 21 18 15 14 12 10 8 8 8 8 7 7 7 8 8 8 8 7 7 7 7 7 6 6 6 7 7 8 9 9 10 11 12 12 12 12 12 13 13 13 13 14
13 13 17 23 25 26 24 21 18 17 15 12 12 11 10 9 9 8 7 7 6 6 6 6 5 6 6 6 7 7 8 8 8 9 10 11 11 12 13 13 14 14 14 14 14 14 14 15 15
15 15 19 23 24 24 24 21 18 17 15 14 13 13 11 10 10 8 6 4 3 3 3 4 4 5 6 7 8 9 9 10 10 11 12 13 14 14 15 16 16 16 16 16 16 16 17 17 17
17 18 20 22 22 23 23 20 18 17 17 16 15 14 12 11 10 8 7 4 2 0 1 3 5 6 8 9 9 11 11 11 12 13 14 16 16 17 18 18 19 19 19 19 19 19 19 19 20
21 20 21 22 21 22 21 20 18 17 18 17 15 14 14 13 11 10 8 6 4 3 4 5 7 8 10 11 11 13 13 14 15 16 17 18 19 20 21 22 22 22 22 22 22 22 22 22 22
23 22 22 21 21 21 21 20 19 18 18 17 15 14 15 15 14 12 10 8 7 7 7 8 9 10 11 12 13 15 15 17 18 19 21 22 23 24 25 27 27 27 26 25 25 25 25 25 25
25 24 23 22 21 22 20 20 19 20 18 18 16 15 14 16 16 14 13 12 10 10 10 11 11 12 13 14 15 17 18 19 21 23 25 26 27 28 29 31 31 32 31 30 29 29 29 29 29
26 26 25 24 23 22 22 20 22 21 20 20 18 17 15 16 17 17 17 15 14 14 13 14 14 14 15 17 18 19 20 22 24 26 27 29 31 33 34 35 36 36 35 35 33 32 32 32 31
28 27 27 27 25 24 23 23 25 21 21 21 20 19 18 18 17 18 18 18 17 17 17 17 17 17 19 20 21 22 24 26 28 30 32 32 33 35 36 37 38 38 38 38 37 36 34 33 33
29 29 29 29 29 27 26 27 26 24 23 23 22 21 20 20 19 20 21 22 21 21 21 21 21 21 22 23 24 25 28 30 33 35 37 36 36 37 38 39 39 40 40 39 38 37 35 34 34
31 31 31 32 31 29 30 29 29 28 26 26 26 25 23 23 23 23 23 25 25 25 25 25 26 25 26 26 27 29 31 34 36 38 38 38 37 39 40 39 38 38 38 37 37 37 35 32 32
32 32 33 34 33 33 33 32 31 31 29 29 29 28 27 26 26 26 27 27 28 28 28 28 29 29 29 30 30 32 34 36 39 40 40 40 40 40 37 34 33 33 33 34 34 33 32 31 30
33 32 33 35 36 36 35 34 34 34 33 32 32 31 31 30 30 30 30 30 30 30 30 31 31 31 31 32 33 34 37 39 41 41 42 43 41 37 35 31 29 27 27 28 28 29 30 30 30
33 33 33 35 36 38 39 37 36 38 37 36 36 35 35 33 32 32 32 32 31 31 31 32 32 33 33 34 35 37 39 40 42 43 42 42 42 39 34 32 30 28 27 28 28 29 30 31 33
33 33 33 35 36 38 38 38 35 39 38 39 39 38 37 36 34 33 33 32 31 31 32 33 34 35 36 37 38 39 41 42 43 42 42 42 41 39 34 32 32 32 31 32 32 32 33 35 38
33 33 33 34 35 38 37 37 34 41 38 38 39 39 38 37 36 34 33 32 31 32 33 34 36 37 38 39 40 41 42 42 42 42 42 42 42 39 36 37 36 35 35 35 36 38 39 41 43
33 33 32 32 34 33 35 34 35 40 37 36 36 37 36 35 34 33 32 32 32 33 34 36 37 38 39 40 41 42 42 42 42 42 42 41 41 41 40 39 38 39 39 40 42 43 44 46 48
32 32 30 25 24 25 32 30 36 35 34 32 32 32 32 32 31 30 30 30 31 32 33 34 36 37 38 40 41 41 42 42 42 42 42 42 42 42 43 43 43 44 45 46 47 48 49 51 52
29 30 28 27 25 21 22 30 32 31 31 29 29 28 28 28 28 28 28 29 30 31 32 33 35 37 38 40 41 42 42 42 43 43 43 43 45 46 47 48 49 49 50 51 51 52 53 54 55
28 27 28 29 25 21 21 24 26 28 28 27 27 26 25 25 25 26 27 28 29 31 32 34 36 37 39 40 41 42 43 44 44 45 45 47 49 50 51 52 53 53 53 53 54 54 54 55 56
26 28 28 26 23 20 18 21 27 25 25 24 24 24 24 24 24 25 27 28 30 32 33 35 36 38 39 41 42 43 44 45 46 48 49 51 52 53 55 55 56 56 56 55 55 56 55 56 56
23 23 25 24 24 24 20 23 25 24 24 24 24 24 24 25 25 27 28 30 31 33 34 36 37 39 40 42 44 45 47 49 51 53 54 56 57 58 59 59 59 58 57 56 56 56 56 56 56
Wind_Direction
214 212 210 205 203 206 217 216 213 216 224 248 270 271 263 259 255 256 253 249 242 230 220 222 224 230 239 248 254 256 257 258 255 252 250 248 246 244 243 246 247 250 254 259 264 266 268 271 274
217 215 212 206 206 204 224 220 219 220 228 250 269 271 253 238 224 195 204 191 160 141 141 150 154 192 224 236 239 240 244 244 242 241 240 242 243 243 243 244 245 246 249 254 259 262 265 268 270
219 218 214 209 208 208 218 220 220 221 227 248 266 270 247 226 167 134 124 117 113 105 102 99 93 98 126 187 221 232 237 233 231 231 231 235 239 242 245 246 247 249 251 254 258 262 265 266 267
223 220 218 213 209 214 220 222 221 221 226 246 261 257 228 149 119 113 108 107 104 98 89 83 82 85 93 108 197 237 234 231 227 226 229 233 237 242 247 250 252 255 258 260 262 264 266 267 268
224 222 220 213 209 216 223 224 222 224 225 233 242 247 204 144 115 104 102 101 98 91 83 79 79 76 69 61 31 319 272 251 241 239 236 237 241 247 252 255 258 261 264 266 266 267 268 270 271
225 224 217 208 206 216 223 225 222 220 216 215 220 219 190 148 128 113 104 100 95 89 84 79 73 67 61 51 36 14 338 302 279 265 257 255 256 257 260 263 266 269 271 271 271 271 272 272 273
225 223 211 203 205 214 222 224 219 211 206 205 211 210 195 157 138 119 109 101 95 90 87 83 74 67 60 51 36 18 354 327 307 295 288 284 279 275 274 274 275 276 277 277 276 276 276 276 276
226 220 207 204 207 213 222 220 212 209 208 210 214 210 189 163 145 128 119 109 102 96 91 84 73 63 55 46 32 18 4 347 329 315 307 300 294 290 288 286 286 285 284 283 282 281 279 279 278
227 223 210 207 210 215 222 219 211 208 211 212 216 212 192 169 151 135 125 115 107 99 91 82 71 59 47 36 22 10 358 348 338 327 318 310 305 301 298 296 294 293 291 288 286 284 281 280 280
229 223 215 214 214 217 221 218 210 209 212 216 217 211 194 178 164 149 134 122 111 98 85 76 61 46 32 20 8 359 351 344 337 330 323 315 309 304 301 299 296 294 292 290 288 284 282 281 280
230 226 224 220 220 220 222 219 210 209 212 217 218 212 206 194 181 170 155 138 118 97 73 52 30 17 8 360 353 347 342 338 334 329 323 317 310 304 298 295 293 292 290 287 285 283 282 280 280
230 230 230 227 226 224 223 219 214 211 212 215 216 219 220 210 200 192 186 182 179 217 360 358 351 348 344 343 341 338 336 334 330 326 320 313 307 301 296 292 289 287 286 284 281 279 279 279 279
230 232 232 232 229 227 226 221 217 216 216 219 222 229 233 225 216 214 211 214 229 267 295 315 324 325 328 331 332 332 329 325 320 317 313 308 303 297 291 287 285 283 281 280 279 278 277 276 277
231 234 236 236 232 230 229 226 221 220 217 221 227 231 232 232 227 227 227 234 245 262 277 291 303 308 316 321 323 323 321 317 313 309 306 301 297 293 289 285 282 280 278 276 276 276 275 274 275
232 235 238 239 236 233 231 230 229 225 221 224 228 232 235 236 235 237 241 246 253 263 272 280 289 295 301 306 311 313 312 312 309 304 301 297 293 289 285 283 280 277 276 274 273 272 272 273 273
232 234 237 238 237 235 232 232 233 228 227 228 230 235 240 241 243 244 248 251 257 264 269 274 281 287 292 297 302 305 305 305 302 299 297 295 293 289 286 282 279 275 273 272 271 270 271 271 271
229 231 234 237 237 235 232 229 235 229 231 232 234 239 245 248 249 251 254 257 258 263 268 272 276 280 285 290 295 298 299 300 297 294 294 293 293 290 287 281 278 276 273 270 269 268 268 269 271
230 230 231 235 236 234 233 232 237 234 234 237 240 245 249 250 253 254 257 262 263 266 269 272 274 276 279 284 288 292 294 294 295 295 297 296 294 296 294 287 280 277 275 272 270 268 268 269 271
230 229 229 233 236 235 236 235 236 239 239 241 243 246 250 252 254 256 260 262 265 268 269 272 275 275 277 281 285 288 290 292 294 297 295 298 298 300 298 290 286 284 280 275 269 271 268 271 272
232 229 229 233 236 236 238 239 239 242 243 244 246 248 251 253 256 260 264 266 266 267 268 270 273 275 277 280 283 286 289 291 293 298 299 301 303 302 302 297 294 292 284 279 276 272 269 274 277
233 231 230 231 235 238 241 243 246 247 247 248 249 251 254 257 259 263 265 267 267 266 266 268 270 273 275 279 281 284 287 290 294 298 301 302 306 307 306 306 306 302 294 288 282 280 279 281 284
233 232 231 232 234 237 240 240 247 247 248 251 253 255 258 260 261 264 265 266 266 264 264 266 268 271 274 277 280 284 287 290 294 298 301 305 307 310 312 315 313 310 306 300 297 294 290 289 291
232 231 231 232 234 236 243 240 242 251 251 253 256 258 260 262 264 264 264 264 263 262 262 263 266 269 273 276 280 283 286 289 292 296 298 302 306 309 311 313 312 311 309 306 303 301 297 294 296
230 231 232 234 236 238 241 244 242 250 252 254 256 258 261 263 264 265 264 263 261 260 261 262 264 268 271 275 278 281 283 286 289 292 296 300 304 306 307 309 310 308 307 305 303 301 298 297 297
229 230 232 235 238 241 243 243 242 250 254 254 255 257 260 262 263 263 263 260 259 260 260 261 263 266 270 273 276 279 281 284 288 291 295 299 302 304 305 307 307 306 304 302 300 300 298 297 296
230 230 228 231 240 243 246 243 246 251 254 254 255 256 257 259 259 260 259 258 258 259 259 259 261 264 268 271 274 277 280 284 288 291 295 298 300 302 303 304 304 303 302 301 299 298 296 295 294
228 228 227 229 231 230 243 246 248 250 252 254 255 256 257 257 257 257 256 257 258 258 259 259 261 263 266 270 273 277 281 285 289 292 295 297 298 300 301 301 302 302 300 299 297 296 295 294 292
225 226 226 227 230 231 240 252 252 251 253 256 258 258 258 257 257 257 257 257 257 258 258 260 262 265 268 271 275 279 283 286 290 293 296 298 299 300 300 301 301 300 299 298 296 295 293 292 290
225 225 226 227 227 228 238 247 252 253 255 257 259 259 259 259 257 257 257 258 259 260 261 263 266 269 271 274 277 281 285 287 290 293 296 298 299 299 299 299 299 299 298 297 295 294 293 291 290
222 224 227 228 234 234 228 246 253 254 256 258 259 259 259 259 258 259 260 261 263 264 267 268 271 273 275 278 280 283 286 288 290 293 295 297 298 299 299 299 299 298 297 295 294 293 292 292 291
Height
5892 5894 5897 5900 5903 5905 5906 5906 5906 5907 5906 5906 5905 5905 5904 5903 5903 5904 5901 5899 5899 5898 5898 5898 5898 5899 5899 5899 5900 5900 5900 5900 5900 5900 5900 5900 5900 5900 5900 5900 5900 5901 5901 5901 5902 5902 5902 5902 5902
5890 5892 5895 5898 5900 5904 5906 5904 5904 5905 5905 5905 5904 5903 5902 5901 5901 5900 5899 5898 5898 5897 5897 5897 5897 5897 5898 5898 5898 5899 5899 5899 5898 5898 5898 5898 5898 5898 5898 5898 5898 5899 5899 5899 5899 5899 5899 5899 5899
5886 5889 5892 5895 5897 5900 5902 5901 5902 5903 5903 5903 5903 5902 5902 5901 5900 5899 5898 5897 5897 5896 5896 5896 5896 5896 5897 5897 5897 5898 5898 5898 5897 5897 5897 5897 5896 5896 5896 5897 5897 5897 5897 5897 5897 5897 5897 5897 5897
5883 5886 5889 5893 5894 5896 5897 5898 5900 5901 5902 5902 5902 5901 5900 5900 5899 5898 5897 5897 5896 5896 5895 5895 5896 5896 5896 5896 5896 5896 5896 5896 5896 5896 5896 5896 5895 5895 5895 5895 5895 5895 5896 5896 5896 5895 5895 5895 5895
5880 5883 5886 5888 5891 5892 5893 5895 5898 5900 5901 5901 5901 5901 5900 5899 5898 5897 5897 5896 5896 5895 5895 5895 5895 5896 5896 5895 5895 5895 5895 5895 5895 5895 5895 5895 5894 5894 5894 5894 5894 5894 5894 5894 5894 5894 5893 5893 5893
5877 5879 5882 5885 5888 5889 5890 5892 5895 5898 5899 5900 5900 5900 5899 5898 5897 5897 5897 5896 5896 5895 5895 5895 5895 5895 5895 5895 5895 5895 5895 5894 5894 5894 5894 5893 5893 5893 5893 5892 5892 5893 5893 5892 5892 5892 5891 5891 5890
5874 5876 5878 5881 5884 5886 5887 5889 5893 5895 5897 5899 5899 5899 5898 5897 5897 5896 5896 5896 5896 5895 5895 5895 5895 5895 5895 5895 5895 5894 5894 5894 5893 5893 5893 5892 5892 5891 5891 5891 5890 5890 5890 5890 5890 5889 5889 5888 5888
5871 5874 5875 5878 5880 5882 5884 5886 5890 5893 5895 5897 5898 5898 5898 5897 5896 5896 5896 5896 5896 5896 5896 5896 5895 5895 5895 5894 5894 5894 5893 5893 5892 5892 5891 5891 5890 5890 5889 5889 5888 5888 5888 5888 5887 5887 5886 5885 5885
5868 5871 5873 5875 5876 5879 5880 5884 5888 5891 5893 5895 5896 5897 5897 5896 5895 5895 5896 5896 5896 5896 5895 5895 5895 5895 5894 5894 5893 5893 5892 5892 5891 5890 5890 5889 5888 5888 5887 5886 5886 5886 5885 5885 5884 5884 5883 5882 5882
5865 5868 5869 5870 5872 5874 5877 5881 5885 5889 5891 5893 5895 5895 5895 5895 5895 5895 5895 5895 5895 5895 5895 5895 5895 5894 5894 5893 5892 5892 5891 5890 5890 5889 5888 5887 5886 5886 5885 5884 5883 5883 5882 5882 5881 5880 5879 5879 5878
5862 5864 5865 5866 5868 5871 5874 5878 5883 5886 5889 5891 5893 5894 5894 5894 5894 5894 5895 5895 5895 5895 5894 5894 5894 5893 5893 5892 5891 5890 5890 5889 5888 5887 5886 5885 5884 5883 5882 5881 5880 5879 5879 5878 5877 5876 5876 5875 5874
5859 5860 5861 5863 5865 5868 5872 5876 5880 5883 5887 5888 5890 5892 5893 5893 5893 5893 5894 5894 5894 5894 5894 5893 5893 5892 5891 5890 5890 5889 5888 5887 5886 5885 5884 5883 5882 5881 5879 5878 5877 5876 5875 5874 5873 5873 5872 5871 5870
5855 5857 5858 5860 5863 5866 5869 5873 5877 5880 5883 5886 5888 5890 5891 5892 5892 5893 5893 5893 5893 5893 5892 5892 5891 5890 5889 5889 5888 5887 5886 5885 5884 5883 5881 5880 5879 5878 5876 5874 5873 5872 5871 5870 5869 5868 5867 5866 5865
5852 5854 5856 5858 5861 5863 5867 5870 5874 5877 5880 5883 5885 5887 5889 5890 5890 5891 5891 5891 5891 5891 5891 5890 5889 5888 5887 5886 5886 5885 5884 5882 5881 5880 5878 5877 5875 5873 5872 5870 5868 5867 5866 5865 5864 5863 5862 5861 5860
5849 5851 5853 5855 5858 5861 5864 5868 5871 5874 5877 5880 5882 5884 5886 5887 5888 5889 5889 5889 5889 5889 5888 5888 5887 5886 5885 5884 5883 5882 5881 5879 5878 5876 5874 5872 5870 5868 5866 5864 5862 5861 5859 5858 5857 5856 5855 5855 5854
5845 5848 5850 5853 5855 5858 5863 5867 5868 5870 5874 5877 5879 5881 5883 5884 5885 5886 5886 5887 5886 5886 5886 5885 5884 5883 5882 5881 5880 5879 5877 5875 5873 5871 5869 5867 5864 5862 5860 5856 5854 5852 5851 5850 5850 5849 5848 5847 5846
5840 5844 5846 5849 5851 5854 5859 5863 5863 5867 5870 5873 5875 5877 5879 5881 5882 5883 5883 5883 5883 5883 5883 5882 5881 5880 5879 5877 5876 5874 5873 5871 5868 5866 5864 5861 5858 5855 5852 5848 5845 5843 5842 5841 5840 5840 5839 5839 5838
5836 5839 5841 5844 5846 5850 5854 5857 5859 5862 5866 5868 5871 5873 5875 5877 5879 5879 5879 5879 5879 5879 5879 5878 5877 5876 5874 5873 5872 5870 5868 5866 5863 5860 5858 5855 5851 5848 5844 5840 5837 5836 5834 5833 5832 5831 5831 5830 5829
5829 5833 5836 5839 5841 5845 5848 5852 5854 5857 5861 5863 5866 5868 5870 5872 5873 5874 5875 5875 5875 5875 5875 5874 5873 5872 5870 5868 5867 5865 5863 5860 5858 5855 5852 5848 5844 5840 5836 5833 5830 5828 5827 5826 5824 5823 5823 5822 5822
5823 5828 5831 5833 5836 5840 5843 5846 5849 5852 5855 5857 5860 5862 5864 5866 5868 5868 5869 5869 5870 5870 5870 5869 5868 5867 5865 5864 5862 5860 5857 5855 5852 5849 5846 5843 5839 5834 5829 5826 5824 5822 5820 5818 5817 5816 5816 5815 5814
5818 5822 5826 5828 5830 5834 5838 5842 5845 5846 5849 5851 5853 5855 5858 5860 5861 5862 5862 5863 5863 5864 5864 5863 5862 5861 5860 5858 5856 5854 5852 5849 5845 5843 5840 5837 5833 5828 5824 5821 5818 5815 5813 5811 5810 5809 5808 5807 5807
5811 5816 5820 5822 5826 5829 5832 5837 5838 5840 5842 5844 5846 5848 5850 5852 5854 5855 5855 5856 5856 5857 5857 5857 5856 5856 5854 5853 5851 5848 5846 5843 5840 5836 5833 5830 5826 5822 5819 5816 5813 5810 5808 5807 5805 5803 5801 5800 5798
5805 5809 5813 5816 5820 5823 5825 5830 5835 5831 5834 5836 5838 5840 5842 5844 5846 5847 5847 5848 5849 5849 5850 5850 5850 5849 5848 5846 5844 5842 5839 5836 5833 5830 5827 5824 5821 5817 5815 5812 5809 5806 5804 5802 5799 5797 5794 5792 5790
5798 5804 5807 5810 5814 5817 5820 5823 5827 5824 5826 5828 5830 5832 5834 5836 5837 5838 5839 5840 5841 5842 5842 5842 5842 5841 5840 5839 5837 5834 5832 5829 5826 5823 5820 5817 5814 5811 5808 5805 5803 5800 5797 5795 5792 5789 5786 5783 5779
5792 5798 5803 5806 5808 5812 5813 5816 5819 5816 5819 5822 5823 5824 5826 5828 5829 5830 5831 5832 5833 5834 5834 5834 5834 5833 5832 5830 5828 5826 5823 5820 5818 5815 5812 5809 5806 5802 5799 5797 5794 5792 5789 5786 5782 5779 5775 5771 5768
5787 5793 5799 5803 5806 5808 5806 5809 5808 5811 5812 5814 5816 5817 5819 5820 5821 5822 5823 5824 5825 5826 5826 5826 5825 5824 5823 5821 5819 5816 5814 5811 5809 5806 5803 5799 5796 5793 5790 5787 5784 5781 5778 5775 5771 5767 5763 5759 5755
5781 5785 5791 5796 5798 5803 5803 5801 5802 5804 5805 5807 5809 5810 5812 5813 5814 5815 5816 5817 5817 5818 5818 5817 5817 5816 5814 5812 5810 5808 5805 5802 5799 5795 5792 5789 5786 5783 5779 5776 5773 5769 5766 5762 5758 5754 5750 5745 5740
5776 5780 5784 5788 5792 5797 5799 5797 5798 5798 5800 5801 5803 5804 5805 5806 5807 5808 5809 5809 5810 5810 5809 5809 5808 5807 5805 5803 5801 5798 5795 5792 5788 5785 5781 5778 5775 5771 5767 5764 5760 5756 5752 5748 5744 5739 5735 5730 5725
5771 5775 5778 5783 5787 5792 5796 5797 5791 5793 5794 5796 5797 5798 5799 5799 5800 5801 5801 5801 5801 5801 5801 5800 5799 5798 5796 5793 5791 5788 5785 5781 5777 5773 5770 5766 5762 5758 5754 5750 5746 5742 5738 5733 5729 5724 5719 5714 5710
5767 5770 5774 5778 5781 5784 5789 5791 5787 5787 5788 5790 5791 5791 5792 5793 5793 5793 5793 5793 5793 5792 5792 5791 5789 5787 5785 5782 5780 5777 5773 5770 5766 5762 5757 5753 5749 5744 5740 5735 5731 5726 5722 5717 5713 5708 5703 5699 5694